Regional Weather Roundup
Issued by NWS

Home | Current Version | Previous Version | Graphics & Text | Print | Product List | Glossary On
Versions: 1 2 3 4 5 6 7 8 9 10 11 12 13 14 15 16 17 18 19 20 21 22 23 24 25 26 27 28 29 30 31 32 33 34 35 36 37 38 39 40 41 42 43 44 45 46 47 48 49 50
000
ASUS45 KABQ 040410
RWRNM
WEATHER ROUNDUP FOR NEW MEXICO
NATIONAL WEATHER SERVICE ALBUQUERQUE NM
900 PM MST TUE MAR 03 2015

NOTE: "FAIR" MEANS FEW OR NO CLOUDS BELOW 12,000 FEET AGL WITH NO
       SIGNIFICANT WEATHER OR OBSTRUCTIONS TO VISION.

      THIS PRODUCT IS RELEASED AS TWO VERSIONS.  ONE VERSION NEAR
      THE TOP OF THE HOUR CONTAINING PRELIMINARY DATA FROM ALBUQUERQUE
      AND OTHER STATIONS.  A FINAL VERSION WITH ADDITIONAL DATA IS
      ISSUED ABOUT 10 MINUTES AFTER THE HOUR.

NMZ501-503-504-510>518-040500-
NORTHWEST PLATEAU/NORTHCENTRAL MOUNTAINS

CITY           SKY/WX    TMP DP  RH WIND       PRES   REMARKS
FARMINGTON     MOCLDY    35  28  75 SW8       29.85R WCI  29
LOS ALAMOS     PTCLDY    36  19  49 SW8G17    29.85R WCI  29
SANTA FE       CLEAR     33  22  63 NW9       29.83R WCI  25
TAOS           PTCLDY    28  16  59 S5        29.85S WCI  23
ANGEL FIRE     CLOUDY    29  19  64 S12G21    29.84S WCI  20

$$
NMZ402-403-502-505>509-040500-
WESTCENTRAL MOUNTAINS/SOUTHWEST MOUNTAINS

CITY           SKY/WX    TMP DP  RH WIND       PRES   REMARKS
GALLUP         CLOUDY    32  27  81 CALM      29.88R
GRANTS         CLEAR     28  21  76 W5        29.90R WCI  22
SILVER CITY    CLEAR     37  28  70 NW8       29.89R WCI  31

$$
NMZ407-409-411-412-040500-
SOUTHERN DESERTS

CITY           SKY/WX    TMP DP  RH WIND       PRES   REMARKS
LORDSBURG      FAIR      43  32  65 NW5       29.86R
DEMING         CLEAR     46  38  73 S6        29.85R
LAS CRUCES     PTCLDY    50  44  79 S8        29.87S
HOLLOMAN AFB   PTCLDY    50  42  76 SW8       29.85R
ALAMOGORDO     PTCLDY    50  41  71 SE14G20   29.87R
T OR C         CLEAR     46  24  42 SW5       29.84R

$$
NMZ519>523-040500-
CENTRAL VALLEYS/CENTRAL HIGHLANDS

CITY           SKY/WX    TMP DP  RH WIND       PRES   REMARKS
ALBUQUERQUE    PTCLDY    46  19  34 NW10      29.85R
DOUBLE EAGLE   CLEAR     37  19  48 W12       29.85R WCI  30
MORIARTY ARPT  FAIR      38  21  50 CALM      29.86R
CLINES CORNERS CLEAR     32  22  66 NW9       29.83R WCI  24
BELEN          FAIR      40  23  52 W9        29.86R WCI  33
SOCORRO          N/A     45  17  32 SW7       29.84R

$$
NMZ524>526-539-540-040500-
SOUTHCENTRAL MOUNTAINS

CITY           SKY/WX    TMP DP  RH WIND       PRES   REMARKS
RUIDOSO        PTCLDY    41  32  70 SW20G25   29.88S

$$
NMZ527>531-040500-
NORTHEAST HIGHLANDS/NORTHEAST PLAINS

CITY           SKY/WX    TMP DP  RH WIND       PRES   REMARKS
LAS VEGAS      PTCLDY    31  20  63 W8        29.82R WCI  23
RATON          CLEAR     29  24  82 NE7       29.79R WCI  22
CLAYTON        FOG       28  27  96 NE16      29.86R VSB 1/4 WCI  16

$$
NMZ532>537-040500-
EASTCENTRAL PLAINS

CITY           SKY/WX    TMP DP  RH WIND       PRES   REMARKS
TUCUMCARI      MOCLDY    50  42  74 CALM      29.79R
CANNON AFB     CLOUDY    49  43  78 S12       29.81R
CLOVIS AIRPORT CLOUDY    45  39  81 S9        29.82R

$$
NMZ028-029-538-040500-
SOUTHEAST PLAINS

CITY           SKY/WX    TMP DP  RH WIND       PRES   REMARKS
ROSWELL        MOCLDY    52  43  71 S15       29.82S
ARTESIA        MOCLDY    48  45  87 SW8       29.85S
CARLSBAD       CLOUDY    55  44  66 S7        29.84S
HOBBS          CLOUDY    54  50  87 CALM      29.88R


$$


USA.gov is the U.S. government's official web portal to all federal, state and local government web resources and services.